Estación de El Refugio

Ultimos registro cada 15 minutos 25
Estación Fecha / Hora Temperatura Humedad Lluvia Velocidad Dirección Radiación Presion
25 El Refugio 09-05-2026 06:15 7,8 92 0 0 323 0 1037,4
24 El Refugio 09-05-2026 06:00 7,8 92 0 0 323 0 1037,4
23 El Refugio 09-05-2026 05:45 7,8 92 0 0 351 0 1037,2
22 El Refugio 09-05-2026 05:30 7,8 92 0 0 350 0 1037,3
21 El Refugio 09-05-2026 05:15 7,8 92 0 0 3 0 1037,3
20 El Refugio 09-05-2026 05:00 7,9 92 0 0 121 0 1037,3
19 El Refugio 09-05-2026 04:30 7,9 91 0 0 142 0 1037,3
18 El Refugio 09-05-2026 04:15 8,2 90 0 0 261 0 1037,2
17 El Refugio 09-05-2026 04:00 8,3 90 0 0 269 0 1037,4
16 El Refugio 09-05-2026 03:45 8,4 90 0 0 213 0 1037,4
15 El Refugio 09-05-2026 03:30 8,6 89 0 0 32 0 1037,2
14 El Refugio 09-05-2026 03:15 8,8 87 0 0 185 0 1037,3
13 El Refugio 09-05-2026 03:00 8,9 88 0 0 139 0 1037,4
12 El Refugio 09-05-2026 02:45 8,6 90 0 0 190 0 1037,7
11 El Refugio 09-05-2026 02:30 8,6 89 0 0 190 0 1038
10 El Refugio 09-05-2026 02:15 8,3 89 0 0 190 0 1038,1
9 El Refugio 09-05-2026 02:00 8,7 89 0 0 190 0 1037,9
8 El Refugio 09-05-2026 01:45 8,7 87 0 0 190 0 1037,9
7 El Refugio 09-05-2026 01:30 8,9 87 0 0 190 0 1037,9
6 El Refugio 09-05-2026 01:15 9,1 84 0 0 190 0 1037,9
5 El Refugio 09-05-2026 01:00 9,7 82 0 0 190 0 1038,1
4 El Refugio 09-05-2026 00:45 10,3 81 0 0 190 0 1038,1
3 El Refugio 09-05-2026 00:30 10,5 79 0 0 190 0 1038
2 El Refugio 09-05-2026 00:15 10,9 78 0 0 190 0 1038,2
1 El Refugio 09-05-2026 00:00 11,1 78 0 0 161 0 1038,3